Regional Weather Roundup
Issued by NWS

Home | Current Version | Previous Version | Text Only | Print | Product List | Glossary Off
Versions: 1 2 3 4 5 6 7 8 9 10 11 12 13 14 15 16 17 18 19 20 21 22 23 24 25 26 27

000
ASUS45 KSLC 290210
RWRUT

UTAH REGIONAL WEATHER ROUNDUP
NATIONAL WEATHER SERVICE SALT LAKE CITY UT
800 PM MDT SAT MAY 28 2016

UTZ001>011-023>025-290300-

NORTHERN UTAH

CITY           SKY/WX    TMP DP  RH WIND       PRES   REMARKS
BRIGHAM CITY     N/A     70  29  21 CALM      30.04R
HILL AFB       CLEAR     68  35  29 N6        30.05R
LOGAN          CLEAR     65  42  43 N5        30.04R
OGDEN          CLEAR     69  34  27 N3        30.03R
PROVO AIRPORT  PTCLDY    70  48  46 NW12      30.03R
SALT LAKE CITY MOCLDY    73  37  27 N9        30.02R
VERNAL         LGT RAIN  63  40  42 W8        30.09R
WENDOVER       PTCLDY    70  37  30 SW8       30.02R
HEBER CITY     PTCLDY    64  37  36 SW5       30.06R
WEST JORDAN    CLEAR     66  39  37 NW8       30.05R

$$

UTZ012>022-026-027-290300-

SOUTHERN/CENTRAL UTAH

CITY           SKY/WX    TMP DP  RH WIND       PRES   REMARKS
BLANDING       MOCLDY    68  31  25 N6        30.15R
BRYCE CANYON   MOCLDY    56  34  43 NE17      30.17R
CEDAR CITY     MOCLDY    70  28  21 W5        30.00R
DELTA          CLOUDY    64  36  34 N6        30.05R
HANKSVILLE     MOCLDY    73  32  21 N5        30.03R
MILFORD        MOCLDY    68  36  30 N18       30.02R
MOAB/CYNLANDS  MOCLDY    74  33  22 NW12      30.00R
PRICE          MOCLDY    61  38  42 E8G18     30.11R
ST GEORGE      PTCLDY    84  30  14 W6        29.85S

$$

REGIONAL REPORTS     COLORADO/ARIZONA

CITY           SKY/WX    TMP DP  RH WIND       PRES   REMARKS
CRAIG, CO      CLOUDY    58  40  51 SW8       30.13R
GRAND JUNCTION PTCLDY    70  35  27 W15       30.02R
RIFLE          CLOUDY    63  37  38 S5        30.09R
MONTROSE       CLOUDY    69  29  22 W3        30.09R
CORTEZ         CLEAR     68  21  16 SW3       30.08R
PAGE, AZ       PTCLDY    81  27  14 N9        29.93R
GRAND CANYON   MOCLDY    69  26  20 E6        30.10R
KINGMAN        CLEAR     83  25  12 SW13      29.88R
FLAGSTAFF      PTCLDY    63  20  19 SW9       30.11R

$$

REGIONAL REPORTS    NEVADA/IDAHO/WYOMING

CITY           SKY/WX    TMP DP  RH WIND       PRES   REMARKS
LAS VEGAS, NV  MOCLDY    89  21   8 S5        29.75R
ELY            MOCLDY    60  38  43 S7        30.10R
ELKO           MOSUNNY   66  43  43 SW13      30.03R
POCATELLO, ID  CLEAR     61  29  29 SW8       30.06S
BURLEY         CLEAR     64  30  27 W7        30.03S
EVANSTON, WY   CLEAR     57  29  34 W13       30.15R
ROCK SPRINGS   PTCLDY    59  30  33 W10       30.12R
KEMMERER         N/A     54  28  37 W9        30.16R

$$




USA.gov is the U.S. government's official web portal to all federal, state and local government web resources and services.